[[{"header":{"parameterUnit":"m.s-1","parameterCategory":1,"la1":30.2991,"la2":30.254,"lo1":-89.0895,"lo2":-89.0444,"dy":0.0017,"dx":0.0017,"nx":28,"ny":28,"refTime":"2024-06-07T03:00:00:Z","depth":0,"parameterNumber":2,"parameterNumberName":"U-component_of_WINDS"},"data":[0,0,0,0,0,0,0,0,0,0,0,0,0,0,0,0,0,0,0,0,0,0,0,0,0,0,0,0,0,0,0,0,0,0,0,0,0,0,0,0,0,0,0,0,0,0,0,0,0,0,0,0,0,0,0,0,0,0,-0.5787,-0.5787,0,-0.5752,-0.5752,-0.5751,-0.5763,-0.5764,-0.5764,-0.5765,-0.5726,-0.5724,-0.5722,0,0,0,0,0,0,0,0,0,0,0,0,0,-0.5862,-0.586,-0.5787,-0.5787,-0.5787,-0.5752,-0.5752,-0.5751,-0.5763,-0.5764,-0.5765,-0.5766,-0.5726,-0.5724,-0.5722,0,0,0,0,0,0,0,0,0,0,0,0,0,-0.5828,-0.586,-0.5788,-0.5788,-0.5788,-0.5752,-0.5752,-0.5751,-0.5763,-0.5764,-0.5765,-0.5766,-0.5727,-0.5724,-0.5722,-0.5682,0,0,-0.5714,-0.5712,0,0,0,0,0,0,0,0,-0.583,-0.5825,-0.5789,-0.5788,-0.5788,-0.5763,-0.5763,-0.5728,-0.5762,-0.5772,-0.5765,-0.5767,-0.5737,-0.5734,-0.5724,-0.568,-0.5679,-0.5713,-0.5712,-0.5711,-0.571,0,0,0,0,0,0,0,-0.5832,-0.5827,-0.5773,-0.5788,-0.5788,-0.5789,-0.5786,-0.5757,-0.5748,-0.5771,-0.5772,-0.5768,-0.5737,-0.5727,-0.5723,-0.5678,-0.5713,-0.5711,-0.5709,-0.5708,-0.5598,-0.5597,0,0,0,0,0,0,-0.5835,-0.5829,-0.5774,-0.5772,-0.5812,-0.5787,-0.5783,-0.577,-0.5749,-0.5747,-0.5767,-0.5769,-0.5731,-0.5727,-0.5722,-0.5673,-0.5711,-0.5708,-0.5707,-0.56,-0.5598,-0.5597,0,0,0,0,0,0,-0.5837,-0.583,-0.5776,-0.5801,-0.5794,-0.5785,-0.5769,-0.5769,-0.5758,-0.5746,-0.5744,-0.5758,-0.5732,-0.5726,-0.5692,-0.5672,-0.5707,-0.5705,-0.5601,-0.5599,-0.5597,-0.5575,0,0,0,0,0,0,-0.5839,-0.5831,-0.5816,-0.58,-0.5793,-0.5747,-0.5768,-0.5767,-0.5754,-0.5756,-0.5737,-0.5735,-0.5732,-0.5696,-0.5689,-0.5669,-0.5702,-0.5603,-0.56,-0.5598,-0.5577,-0.5572,-0.5568,0,0,0,0,0,-0.5842,-0.5811,-0.5816,-0.5809,-0.5775,-0.5746,-0.5741,-0.574,-0.5753,-0.5737,-0.5729,-0.5735,-0.5676,-0.5692,-0.5685,-0.5663,-0.5604,-0.5601,-0.5598,-0.5579,-0.5573,-0.5568,0,0,0,0,0,0,-0.5824,-0.5809,-0.5814,-0.5778,-0.5763,-0.5748,-0.5729,-0.5734,-0.5714,-0.5717,-0.5715,-0.571,-0.5675,-0.5666,-0.5685,-0.5623,-0.5642,-0.5637,-0.563,-0.5624,-0.562,-0.5621,-0.57,0,0,0,0,0,-0.5816,-0.5795,-0.5783,-0.5752,-0.5745,-0.5738,-0.5726,-0.5726,-0.571,-0.5704,-0.5693,-0.5676,-0.5654,-0.5639,-0.5618,-0.5577,-0.5572,-0.5559,-0.5554,-0.555,-0.5545,-0.5522,-0.5515,-0.5587,-0.5587,-0.5587,0,0,-0.5799,-0.5788,-0.5775,-0.5748,-0.5737,-0.5714,-0.5733,-0.5708,-0.569,-0.5699,-0.5666,-0.5658,-0.564,-0.5602,-0.5585,-0.5593,-0.5525,-0.5546,-0.5544,-0.5541,-0.5518,-0.5511,-0.5505,-0.5585,-0.5585,-0.5585,0,0,-0.5756,-0.5746,-0.5719,-0.5708,-0.5691,-0.5687,-0.568,-0.5664,-0.5659,-0.5627,-0.5633,-0.5612,-0.5573,-0.5559,-0.5547,-0.5499,-0.5504,-0.5493,-0.5467,-0.5444,-0.5439,-0.5434,-0.5414,-0.5408,-0.5488,-0.5488,-0.5488,0,-0.5736,-0.5703,-0.5704,-0.5678,-0.5666,-0.5675,-0.5646,-0.5634,-0.5611,-0.5601,-0.5612,-0.5564,-0.5552,-0.551,-0.5499,-0.5489,-0.548,-0.5493,-0.544,-0.5435,-0.543,-0.5411,-0.5404,-0.5487,-0.5487,-0.5487,-0.5487,0,-0.5678,-0.5655,-0.5635,-0.5613,-0.5598,-0.5571,-0.5567,-0.5552,-0.5554,-0.5548,-0.5514,-0.5501,-0.5476,-0.5467,-0.5468,-0.5425,-0.5431,-0.5441,-0.5458,-0.5422,-0.5404,-0.5397,-0.5485,-0.5485,-0.5486,-0.5486,0,0,-0.5621,-0.5601,-0.5593,-0.5583,-0.5565,-0.5546,-0.552,-0.5497,-0.5483,-0.5467,-0.5443,-0.541,-0.5419,-0.5406,-0.5406,-0.5386,-0.5346,-0.5398,-0.5397,-0.5387,-0.5296,-0.5286,-0.5278,-0.535,-0.5349,-0.5348,-0.5296,0,-0.5575,-0.5528,-0.5529,-0.5485,-0.5462,-0.5471,-0.5447,-0.5433,-0.5427,-0.5407,-0.54,-0.5376,-0.5391,-0.5383,-0.5364,-0.5355,-0.5327,-0.5359,-0.5326,-0.5324,-0.5327,-0.5269,-0.526,-0.5212,-0.529,-0.5289,-0.5288,0,-0.5514,-0.5496,-0.5451,-0.5436,-0.5426,-0.5405,-0.5383,-0.5364,-0.5348,-0.5345,-0.533,-0.5333,-0.5304,-0.5325,-0.5285,-0.5306,-0.5293,-0.5287,-0.5285,-0.5279,-0.5302,-0.526,-0.5196,-0.5188,-0.5278,-0.5278,-0.5279,0,-0.5474,-0.5439,-0.5407,-0.5398,-0.538,-0.5365,-0.5356,-0.5342,-0.5328,-0.5309,-0.5299,-0.5277,-0.5264,-0.5247,-0.5243,-0.5259,-0.5202,-0.5223,-0.5197,-0.5196,-0.5182,-0.5182,-0.5112,-0.5178,-0.5178,-0.5178,-0.5178,0,-0.542,-0.5391,-0.5388,-0.5368,-0.5336,-0.5337,-0.5304,-0.5297,-0.5284,-0.5261,-0.5268,-0.5246,-0.5244,-0.5222,-0.5219,-0.5185,-0.5179,-0.5175,-0.5174,-0.5173,-0.5173,-0.5162,-0.5164,-0.5176,-0.5176,-0.5177,-0.5177,0,-0.5369,-0.5366,-0.5331,-0.5318,-0.5314,-0.529,-0.5278,-0.5258,-0.5253,-0.5225,-0.5218,-0.5211,-0.5185,-0.518,-0.5149,-0.5147,-0.5105,-0.5109,-0.5111,-0.511,-0.5084,-0.5085,-0.5002,-0.499,-0.5066,-0.5065,-0.5064,0,-0.5334,-0.5312,-0.5296,-0.5282,-0.5273,-0.5251,-0.5236,-0.5236,-0.5221,-0.5201,-0.5183,-0.5158,-0.5138,-0.5096,-0.5087,-0.5063,-0.5065,-0.5037,-0.5061,-0.506,-0.5061,-0.5061,-0.5058,-0.5032,-0.5031,-0.503,-0.503,0,-0.5271,-0.5271,-0.5251,-0.523,-0.5213,-0.5196,-0.518,-0.5168,-0.5166,-0.5148,-0.5122,-0.5107,-0.5076,-0.505,-0.5026,-0.5017,-0.5022,-0.5023,-0.5015,-0.5012,-0.5013,-0.501,-0.5095,-0.5024,-0.5025,-0.5025,-0.5025,-0.5025,-0.5225,-0.5205,-0.5191,-0.5168,-0.5156,-0.5141,-0.5122,-0.5115,-0.5094,-0.5069,-0.507,-0.5041,-0.5025,-0.4994,-0.4983,-0.4959,-0.4968,-0.4957,-0.4954,-0.495,-0.4947,-0.5019,-0.4955,-0.4955,-0.4955,-0.4956,-0.4956,0,-0.516,-0.5152,-0.5131,-0.5109,-0.509,-0.5099,-0.5082,-0.5065,-0.504,-0.5025,-0.5005,-0.4975,-0.495,-0.4939,-0.4915,-0.4897,-0.4899,-0.4891,-0.489,-0.4888,-0.4942,-0.495,-0.489,-0.489,-0.489,-0.489,-0.489,-0.489,-0.5124,-0.5091,-0.5089,-0.5049,-0.5041,-0.5012,-0.5002,-0.4987,-0.4975,-0.4941,-0.4921,-0.4915,-0.4901,-0.4876,-0.4853,-0.485,-0.4839,-0.4829,-0.4828,-0.4878,-0.4884,-0.489,-0.4898,-0.4828,-0.4828,-0.4775,-0.4775,-0.4774]},{"header":{"parameterUnit":"m.s-1","parameterCategory":1,"la1":30.2991,"la2":30.254,"lo1":-89.0895,"lo2":-89.0444,"dy":0.0017,"dx":0.0017,"nx":28,"ny":28,"refTime":"2024-06-07T03:00:00:Z","depth":0,"parameterNumber":3,"parameterNumberName":"V-component_of_WINDS"},"data":[0,0,0,0,0,0,0,0,0,0,0,0,0,0,0,0,0,0,0,0,0,0,0,0,0,0,0,0,0,0,0,0,0,0,0,0,0,0,0,0,0,0,0,0,0,0,0,0,0,0,0,0,0,0,0,0,0,0,3.0287,3.0287,0,3.029,3.029,3.029,3.0319,3.032,3.0321,3.0321,3.0321,3.032,3.032,0,0,0,0,0,0,0,0,0,0,0,0,0,3.0303,3.0302,3.0287,3.0287,3.0287,3.029,3.029,3.029,3.0319,3.032,3.0321,3.0322,3.0321,3.032,3.032,0,0,0,0,0,0,0,0,0,0,0,0,0,3.03,3.0302,3.0287,3.0302,3.0303,3.029,3.029,3.029,3.0319,3.032,3.0321,3.0322,3.0321,3.032,3.0319,3.0291,0,0,3.0316,3.0316,0,0,0,0,0,0,0,0,3.03,3.0299,3.03,3.0301,3.0302,3.0306,3.0296,3.0291,3.0319,3.0313,3.0321,3.0323,3.0315,3.0314,3.0312,3.0291,3.0291,3.0316,3.0316,3.0315,3.0315,0,0,0,0,0,0,0,3.03,3.0299,3.0288,3.03,3.0301,3.0307,3.0308,3.0295,3.0307,3.0313,3.0316,3.0316,3.0316,3.0313,3.0313,3.0291,3.0316,3.0315,3.0315,3.0314,3.0248,3.0247,0,0,0,0,0,0,3.0299,3.0299,3.0288,3.0288,3.0304,3.0306,3.0307,3.0303,3.0308,3.031,3.0315,3.0317,3.0315,3.0314,3.0313,3.0281,3.0315,3.0314,3.0314,3.0249,3.0248,3.0247,0,0,0,0,0,0,3.0299,3.0297,3.0288,3.0294,3.0294,3.0305,3.03,3.0303,3.0301,3.0309,3.0311,3.031,3.0315,3.0314,3.0297,3.0281,3.0314,3.0313,3.0251,3.0249,3.0247,3.0216,0,0,0,0,0,0,3.0299,3.0297,3.0287,3.0294,3.0293,3.0273,3.0299,3.0302,3.0299,3.0302,3.0305,3.0307,3.0316,3.0298,3.0296,3.028,3.0312,3.0252,3.025,3.0248,3.0219,3.0214,3.0209,0,0,0,0,0,3.03,3.0277,3.0287,3.0285,3.0281,3.0272,3.0271,3.0284,3.0298,3.0288,3.0293,3.0307,3.0283,3.0296,3.0294,3.0278,3.0253,3.0251,3.0248,3.0221,3.0215,3.021,0,0,0,0,0,0,3.0267,3.0279,3.0289,3.0269,3.0269,3.0277,3.0264,3.0277,3.0273,3.0275,3.029,3.029,3.0271,3.0272,3.0287,3.0251,3.0271,3.0267,3.0251,3.0245,3.0241,3.024,3.0311,0,0,0,0,0,3.0258,3.0251,3.026,3.0241,3.0241,3.0253,3.0249,3.0259,3.026,3.026,3.0264,3.0263,3.0256,3.025,3.0244,3.0219,3.022,3.0207,3.0202,3.0198,3.0195,3.0183,3.0177,3.0238,3.0238,3.0238,0,0,3.0238,3.0244,3.0238,3.0235,3.0237,3.0228,3.0253,3.0242,3.0236,3.0258,3.0242,3.0245,3.0245,3.0224,3.0215,3.0225,3.0179,3.0195,3.0192,3.0191,3.018,3.0174,3.0169,3.0237,3.0237,3.0237,0,0,3.0198,3.0201,3.0186,3.0188,3.0191,3.0199,3.0195,3.0201,3.0204,3.0189,3.0206,3.0198,3.0185,3.0184,3.0182,3.0143,3.0156,3.014,3.0116,3.0104,3.0099,3.0095,3.0081,3.0076,3.0137,3.0137,3.0137,0,3.0173,3.0161,3.0176,3.0165,3.0164,3.0185,3.0169,3.017,3.017,3.0168,3.0179,3.0164,3.0165,3.0145,3.0136,3.0133,3.0129,3.014,3.0099,3.0094,3.0091,3.0078,3.0073,3.0136,3.0136,3.0136,3.0136,0,3.013,3.0122,3.0109,3.0111,3.0108,3.0094,3.0107,3.0101,3.0111,3.0118,3.0102,3.0105,3.01,3.0096,3.0105,3.0077,3.0083,3.0096,3.0116,3.0083,3.0071,3.0066,3.0133,3.0134,3.0134,3.0135,0,0,3.0069,3.008,3.0075,3.0076,3.0081,3.0075,3.0062,3.0059,3.0054,3.0054,3.0043,3.0032,3.0045,3.0043,3.0052,3.0041,3.001,3.0056,3.0056,3.0047,2.998,2.997,2.9964,3.0019,3.0018,3.0017,2.998,0,3.0031,3.0012,3.0025,3.0003,2.9996,3.0016,3.0005,3.0007,3.0012,3.0006,3.0012,3.0005,3.0021,3.002,3.0011,3.0016,2.9997,3.0019,3.0009,3.0008,3.0008,2.9958,2.9948,2.9913,2.9976,2.9975,2.9974,0,2.9984,2.9983,2.996,2.9968,2.9965,2.9955,2.9954,2.9948,2.995,2.9955,2.9953,2.9965,2.9953,2.9973,2.9956,2.997,2.9967,2.9969,2.9968,2.9967,2.9989,2.9957,2.9902,2.9897,2.9967,2.9968,2.9968,0,2.9942,2.9935,2.9921,2.9921,2.9929,2.9922,2.9925,2.9928,2.9925,2.9923,2.9922,2.9918,2.9916,2.9912,2.9922,2.9936,2.9904,2.9925,2.9908,2.9907,2.99,2.99,2.9844,2.9897,2.9897,2.9897,2.9898,0,2.9898,2.9883,2.9902,2.9894,2.9878,2.9894,2.9877,2.9882,2.9885,2.9877,2.9894,2.9886,2.99,2.9894,2.9902,2.9887,2.9885,2.9889,2.9891,2.9887,2.9887,2.9885,2.9888,2.9896,2.9896,2.9897,2.9897,0,2.9848,2.9861,2.9847,2.9856,2.9858,2.9846,2.9854,2.9846,2.9853,2.9843,2.9842,2.9853,2.9846,2.9856,2.985,2.9855,2.9835,2.9841,2.9835,2.9836,2.9819,2.9821,2.976,2.9753,2.981,2.981,2.9809,0,2.982,2.9809,2.9818,2.9815,2.9817,2.9811,2.9809,2.9824,2.9821,2.9823,2.9815,2.9809,2.9806,2.9794,2.9801,2.9796,2.9802,2.9781,2.9802,2.9799,2.9802,2.9803,2.9802,2.9777,2.9776,2.9776,2.9775,0,2.9768,2.9774,2.9771,2.977,2.9768,2.9767,2.9768,2.9764,2.9779,2.9775,2.9769,2.9766,2.9761,2.9755,2.9753,2.9755,2.9768,2.9769,2.9765,2.9761,2.9758,2.976,2.9824,2.977,2.9771,2.9771,2.9772,2.9772,2.9728,2.972,2.9725,2.9721,2.9724,2.9724,2.9718,2.9725,2.9721,2.9718,2.9727,2.9719,2.9721,2.972,2.972,2.9714,2.9723,2.9717,2.9715,2.9714,2.9711,2.9759,2.9713,2.9713,2.9714,2.9714,2.9714,0,2.9677,2.9682,2.9678,2.9679,2.9676,2.969,2.9691,2.9688,2.9681,2.9683,2.968,2.9673,2.9668,2.9675,2.9671,2.9665,2.967,2.9663,2.9664,2.9664,2.9703,2.9707,2.9659,2.9659,2.9659,2.9659,2.9659,2.9659,2.965,2.9638,2.9645,2.9634,2.9639,2.9632,2.9632,2.9633,2.9635,2.9627,2.9623,2.9628,2.9632,2.9629,2.9625,2.9627,2.9625,2.9616,2.962,2.9656,2.9661,2.9667,2.9671,2.9615,2.9615,2.9582,2.9582,2.9581]}]]